Time,TemperatureF,DewpointF,PressureIn,WindDirection,WindDirectionDegrees,WindSpeedMPH,WindSpeedGustMPH,Humidity,HourlyPrecipIn,Conditions,Clouds,dailyrainin,SolarRadiationWatts/m^2,SoftwareType,DateUTC
2013-04-17 00:00:00,43.0,35.0,-100.00,SSE,157,2.0,-999.0,72,-99.99,,,-99.99,0.000000,,2013-04-17 04:00:00,
2013-04-17 00:43:00,43.0,35.0,-100.00,SSE,157,2.0,-999.0,72,-99.99,,,-99.99,0.000000,,2013-04-17 04:43:00,
2013-04-17 00:53:00,43.0,35.0,-100.00,SSE,157,2.0,-999.0,72,-99.99,,,-99.99,0.000000,,2013-04-17 04:53:00,
2013-04-17 01:00:00,42.0,34.0,-100.00,NE,45,1.0,-999.0,72,-99.99,,,-99.99,0.000000,,2013-04-17 05:00:00,
2013-04-17 01:43:00,42.0,34.0,-100.00,NE,45,1.0,-999.0,72,-99.99,,,-99.99,0.000000,,2013-04-17 05:43:00,
2013-04-17 01:52:00,42.0,34.0,-100.00,NE,45,1.0,-999.0,72,-99.99,,,-99.99,0.000000,,2013-04-17 05:52:00,
2013-04-17 02:00:00,43.0,33.0,-100.00,NE,45,4.0,-999.0,68,-99.99,,,-99.99,0.000000,,2013-04-17 06:00:00,
2013-04-17 02:42:00,43.0,33.0,-100.00,NE,45,4.0,-999.0,68,-99.99,,,-99.99,0.000000,,2013-04-17 06:42:00,
2013-04-17 02:52:00,43.0,33.0,-100.00,NE,45,4.0,-999.0,68,-99.99,,,-99.99,0.000000,,2013-04-17 06:52:00,
2013-04-17 03:00:00,43.0,31.0,-100.00,NE,45,4.0,-999.0,61,-99.99,,,-99.99,0.000000,,2013-04-17 07:00:00,
2013-04-17 03:42:00,43.0,31.0,-100.00,NE,45,4.0,-999.0,61,-99.99,,,-99.99,0.000000,,2013-04-17 07:42:00,
2013-04-17 03:52:00,43.0,31.0,-100.00,NE,45,4.0,-999.0,61,-99.99,,,-99.99,0.000000,,2013-04-17 07:52:00,
2013-04-17 04:00:00,44.0,30.0,-100.00,ENE,67,6.0,-999.0,58,-99.99,,,-99.99,0.000000,,2013-04-17 08:00:00,
2013-04-17 04:42:00,44.0,30.0,-100.00,ENE,67,6.0,-999.0,58,-99.99,,,-99.99,0.000000,,2013-04-17 08:42:00,
2013-04-17 04:52:00,44.0,30.0,-100.00,ENE,67,6.0,-999.0,58,-99.99,,,-99.99,0.000000,,2013-04-17 08:52:00,
2013-04-17 05:00:00,44.0,30.0,-100.00,ENE,67,7.0,-999.0,58,-99.99,,,-99.99,0.000000,,2013-04-17 09:00:00,
2013-04-17 05:42:00,44.0,30.0,-100.00,ENE,67,7.0,-999.0,58,-99.99,,,-99.99,0.000000,,2013-04-17 09:42:00,
2013-04-17 05:53:00,44.0,30.0,-100.00,ENE,67,7.0,-999.0,58,-99.99,,,-99.99,0.000000,,2013-04-17 09:53:00,
2013-04-17 06:00:00,43.0,31.0,-100.00,ENE,67,9.0,-999.0,62,-99.99,,,-99.99,0.000000,,2013-04-17 10:00:00,
2013-04-17 06:43:00,43.0,31.0,-100.00,ENE,67,9.0,-999.0,62,-99.99,,,-99.99,0.000000,,2013-04-17 10:43:00,
2013-04-17 06:53:00,43.0,31.0,-100.00,ENE,67,9.0,-999.0,62,-99.99,,,-99.99,0.000000,,2013-04-17 10:53:00,
2013-04-17 07:00:00,42.0,34.0,-100.00,East,90,9.0,-999.0,71,-99.99,,,-99.99,1.160000,,2013-04-17 11:00:00,
2013-04-17 07:42:00,42.0,34.0,-100.00,East,90,9.0,-999.0,71,-99.99,,,-99.99,1.160000,,2013-04-17 11:42:00,
2013-04-17 07:52:00,42.0,34.0,-100.00,East,90,9.0,-999.0,71,-99.99,,,-99.99,1.160000,,2013-04-17 11:52:00,
2013-04-17 08:00:00,42.0,34.0,-100.00,East,90,11.0,-999.0,73,-99.99,,,-99.99,66.120003,,2013-04-17 12:00:00,
2013-04-17 08:42:00,42.0,34.0,-100.00,East,90,11.0,-999.0,73,-99.99,,,-99.99,66.120003,,2013-04-17 12:42:00,
2013-04-17 08:52:00,42.0,34.0,-100.00,East,90,11.0,-999.0,73,-99.99,,,-99.99,66.120003,,2013-04-17 12:52:00,
2013-04-17 09:00:00,43.0,33.0,-100.00,East,90,13.0,-999.0,68,-99.99,,,-99.99,192.559998,,2013-04-17 13:00:00,
2013-04-17 09:42:00,43.0,33.0,-100.00,East,90,13.0,-999.0,68,-99.99,,,-99.99,192.559998,,2013-04-17 13:42:00,
2013-04-17 09:52:00,43.0,33.0,-100.00,East,90,13.0,-999.0,68,-99.99,,,-99.99,192.559998,,2013-04-17 13:52:00,
2013-04-17 10:00:00,44.0,32.0,-100.00,East,90,14.0,-999.0,62,-99.99,,,-99.99,307.399994,,2013-04-17 14:00:00,
2013-04-17 10:43:00,44.0,32.0,-100.00,East,90,14.0,-999.0,62,-99.99,,,-99.99,307.399994,,2013-04-17 14:43:00,
2013-04-17 10:52:00,44.0,32.0,-100.00,East,90,14.0,-999.0,62,-99.99,,,-99.99,307.399994,,2013-04-17 14:52:00,
2013-04-17 11:00:00,47.0,32.0,-100.00,ENE,67,13.0,-999.0,56,-99.99,,,-99.99,424.559998,,2013-04-17 15:00:00,
2013-04-17 11:43:00,47.0,32.0,-100.00,ENE,67,13.0,-999.0,56,-99.99,,,-99.99,424.559998,,2013-04-17 15:43:00,
2013-04-17 11:53:00,47.0,32.0,-100.00,ENE,67,13.0,-999.0,56,-99.99,,,-99.99,424.559998,,2013-04-17 15:53:00,
2013-04-17 12:00:00,49.0,32.0,-100.00,East,90,13.0,-999.0,52,-99.99,,,-99.99,477.920013,,2013-04-17 16:00:00,
2013-04-17 12:42:00,49.0,32.0,-100.00,East,90,13.0,-999.0,52,-99.99,,,-99.99,477.920013,,2013-04-17 16:42:00,
2013-04-17 12:52:00,49.0,32.0,-100.00,East,90,13.0,-999.0,52,-99.99,,,-99.99,477.920013,,2013-04-17 16:52:00,
2013-04-17 13:00:00,49.0,33.0,-100.00,East,90,12.0,-999.0,55,-99.99,,,-99.99,154.279999,,2013-04-17 17:00:00,
2013-04-17 13:42:00,49.0,33.0,-100.00,East,90,12.0,-999.0,55,-99.99,,,-99.99,154.279999,,2013-04-17 17:42:00,
2013-04-17 13:52:00,49.0,33.0,-100.00,East,90,12.0,-999.0,55,-99.99,,,-99.99,154.279999,,2013-04-17 17:52:00,
2013-04-17 14:00:00,49.0,35.0,-100.00,East,90,17.0,-999.0,59,-99.99,,,-99.99,254.039993,,2013-04-17 18:00:00,
2013-04-17 14:42:00,49.0,35.0,-100.00,East,90,17.0,-999.0,59,-99.99,,,-99.99,254.039993,,2013-04-17 18:42:00,
2013-04-17 14:52:00,49.0,35.0,-100.00,East,90,17.0,-999.0,59,-99.99,,,-99.99,254.039993,,2013-04-17 18:52:00,
2013-04-17 15:00:00,49.0,37.0,-100.00,East,90,12.0,-999.0,62,-99.99,,,-99.99,141.520004,,2013-04-17 19:00:00,
2013-04-17 15:42:00,49.0,37.0,-100.00,East,90,12.0,-999.0,62,-99.99,,,-99.99,141.520004,,2013-04-17 19:42:00,
2013-04-17 15:52:00,49.0,37.0,-100.00,East,90,12.0,-999.0,62,-99.99,,,-99.99,141.520004,,2013-04-17 19:52:00,
2013-04-17 16:00:00,48.0,39.0,-100.00,East,90,10.0,-999.0,71,0.03,,,-99.99,44.080002,,2013-04-17 20:00:00,
2013-04-17 16:42:00,48.0,39.0,-100.00,East,90,10.0,-999.0,71,0.03,,,-99.99,44.080002,,2013-04-17 20:42:00,
2013-04-17 16:52:00,48.0,39.0,-100.00,East,90,10.0,-999.0,71,0.03,,,-99.99,44.080002,,2013-04-17 20:52:00,
2013-04-17 17:00:00,46.0,44.0,-100.00,ESE,112,14.0,-999.0,92,0.13,,,-99.99,12.760000,,2013-04-17 21:00:00,
2013-04-17 17:43:00,46.0,44.0,-100.00,ESE,112,14.0,-999.0,92,0.13,,,-99.99,12.760000,,2013-04-17 21:43:00,
2013-04-17 17:53:00,46.0,44.0,-100.00,ESE,112,14.0,-999.0,92,0.13,,,-99.99,12.760000,,2013-04-17 21:53:00,
2013-04-17 18:00:00,44.0,44.0,-100.00,ESE,112,11.0,-999.0,100,0.30,,,-99.99,13.920000,,2013-04-17 22:00:00,
2013-04-17 18:43:00,44.0,44.0,-100.00,ESE,112,11.0,-999.0,100,0.30,,,-99.99,13.920000,,2013-04-17 22:43:00,
2013-04-17 18:53:00,44.0,44.0,-100.00,ESE,112,11.0,-999.0,100,0.30,,,-99.99,13.920000,,2013-04-17 22:53:00,
2013-04-17 19:00:00,43.0,43.0,-100.00,ENE,67,10.0,-999.0,103,0.24,,,-99.99,5.800000,,2013-04-17 23:00:00,
2013-04-17 19:42:00,43.0,43.0,-100.00,ENE,67,10.0,-999.0,103,0.24,,,-99.99,5.800000,,2013-04-17 23:42:00,
2013-04-17 19:52:00,43.0,43.0,-100.00,ENE,67,10.0,-999.0,103,0.24,,,-99.99,5.800000,,2013-04-17 23:52:00,
2013-04-17 21:00:00,45.0,45.0,-100.00,ESE,112,9.0,-999.0,101,0.01,,,-99.99,1.160000,,2013-04-18 01:00:00,
2013-04-17 21:42:00,45.0,45.0,-100.00,ESE,112,9.0,-999.0,101,0.01,,,-99.99,1.160000,,2013-04-18 01:42:00,
2013-04-17 21:52:00,45.0,45.0,-100.00,ESE,112,9.0,-999.0,101,0.01,,,-99.99,1.160000,,2013-04-18 01:52:00,
2013-04-17 22:00:00,45.0,45.0,-100.00,East,90,12.0,-999.0,100,0.01,,,-99.99,0.000000,,2013-04-18 02:00:00,
2013-04-17 23:00:00,46.0,46.0,-100.00,East,90,11.0,-999.0,98,-99.99,,,-99.99,0.000000,,2013-04-18 03:00:00,
2013-04-17 23:43:00,46.0,46.0,-100.00,East,90,11.0,-999.0,98,-99.99,,,-99.99,0.000000,,2013-04-18 03:43:00,
2013-04-17 23:53:00,46.0,46.0,-100.00,East,90,11.0,-999.0,98,-99.99,,,-99.99,0.000000,,2013-04-18 03:53:00,